Wind_Speed
50 51 52 53 55 57 59 60 60 59 59 58 56 55 54 54 53 52 51 50 49 50 51 51 48 47 47 46 47 51 53 54 54 53 54 54 54 54 51 46 45 48 50 51 53 53 53 53 54 55 56 58 60 62 62 63 63 62 61 60 59 58 58 58 56 51 46 44 43 43 42 41 39 38 39 40 40 37 34 32 31 32 36 38 39
53 55 55 56 57 58 59 60 61 62 62 62 62 61 60 59 58 57 55 53 52 52 53 53 53 54 52 50 49 51 54 57 59 59 60 58 56 55 54 51 51 54 54 54 55 57 57 58 60 62 64 65 65 65 64 64 63 61 60 59 59 59 58 56 53 50 46 44 43 42 42 41 39 37 36 37 39 37 33 32 30 30 33 37 40
56 57 58 59 60 61 61 62 63 64 65 65 65 65 65 64 64 62 61 60 59 57 57 57 59 59 58 56 56 56 56 57 58 57 56 56 57 58 57 56 59 61 59 58 59 60 60 62 64 66 66 64 62 60 59 58 56 56 55 56 55 54 53 50 47 45 43 42 43 42 41 40 39 39 37 35 35 35 35 34 34 33 35 37 40
59 59 61 62 63 63 64 64 65 66 67 67 67 68 68 68 68 67 66 66 65 64 63 63 62 62 61 61 61 61 61 61 60 60 61 64 65 63 62 63 66 67 63 61 61 61 61 62 64 64 62 57 55 54 54 53 51 50 49 48 47 46 46 44 43 42 42 42 42 42 41 40 40 40 37 34 33 35 37 39 38 39 39 39 40
62 62 63 64 65 65 66 67 67 68 69 69 70 70 70 70 70 69 69 69 68 68 67 66 66 66 65 64 62 62 63 64 66 69 72 72 67 64 64 66 67 65 61 60 60 60 59 58 58 57 55 52 52 53 52 49 46 43 42 42 42 43 43 43 42 42 42 43 43 42 42 41 40 39 37 36 36 36 38 40 41 42 42 41 41
64 64 65 66 66 67 68 68 69 69 70 70 70 71 72 72 71 71 71 70 69 69 68 67 67 67 66 65 63 62 63 63 64 67 69 69 65 64 64 64 63 62 61 60 61 61 60 58 56 54 53 53 53 51 48 45 42 41 42 43 43 44 43 43 43 44 44 44 44 43 42 42 41 40 39 39 39 39 38 39 41 42 43 42 43
65 66 66 67 67 68 68 68 69 70 70 70 71 71 72 72 73 73 73 73 71 70 69 69 68 68 68 66 63 61 61 61 62 64 67 66 64 64 63 63 63 64 63 62 61 61 61 61 59 57 56 55 53 50 48 47 46 45 46 47 47 46 46 45 45 45 46 46 45 45 43 41 42 42 41 41 41 40 39 39 39 41 42 43 45
66 67 67 67 68 68 68 68 68 69 70 70 71 71 72 72 73 74 74 74 73 72 71 71 70 70 69 68 65 61 60 60 62 65 68 67 65 64 64 64 65 64 63 63 62 62 63 64 63 61 59 57 55 53 52 52 52 51 51 51 51 50 48 48 47 47 47 47 46 45 42 41 42 43 42 41 41 42 41 39 38 40 42 43 45
67 67 67 68 68 68 68 68 68 69 69 70 70 71 71 71 71 71 72 72 71 71 71 70 70 70 69 67 65 63 62 63 63 65 69 70 68 66 64 64 64 63 63 63 63 64 66 66 65 62 58 56 56 57 57 57 57 57 56 55 53 51 50 49 49 49 49 48 46 45 43 42 43 44 43 42 42 42 42 39 38 40 41 43 45
68 68 68 68 68 68 68 68 68 69 69 69 69 69 70 70 69 70 70 70 69 69 68 67 67 66 66 66 66 65 65 66 65 66 69 71 71 68 66 65 66 65 65 65 65 66 66 66 65 62 59 60 61 61 61 60 60 60 58 56 53 51 51 51 51 51 50 48 47 46 45 44 44 44 45 44 43 42 42 41 39 40 42 43 46
68 67 67 68 68 68 68 68 68 68 68 68 68 67 67 67 67 68 68 68 67 67 66 65 64 64 64 65 65 65 66 66 67 68 71 73 73 71 68 67 67 67 66 65 67 69 68 66 65 63 63 63 63 62 63 63 62 60 56 53 52 52 52 53 52 51 49 48 48 48 48 47 46 45 45 46 44 43 43 42 40 40 42 44 47
66 65 65 64 64 65 65 65 65 66 66 66 66 66 65 66 66 66 66 66 66 66 65 65 64 63 63 63 63 64 65 67 69 71 73 75 75 75 73 72 71 70 69 68 69 71 71 71 70 69 67 64 63 63 64 63 61 57 54 53 54 54 54 53 51 50 50 50 50 50 51 50 49 48 47 47 47 45 44 44 43 42 42 44 49
63 63 62 62 62 63 63 63 64 65 65 65 65 66 66 66 66 66 66 66 67 67 67 67 66 66 65 65 64 64 65 66 68 70 73 75 77 78 77 75 73 71 71 72 72 73 73 73 73 72 70 65 62 62 62 61 59 57 56 56 56 56 55 53 53 53 53 53 53 53 54 55 53 51 50 48 48 48 47 46 46 44 43 45 50
63 63 63 63 64 64 64 65 65 66 66 67 67 68 68 68 68 69 69 69 69 69 70 70 70 70 69 69 68 68 68 67 68 69 71 73 75 76 75 73 72 71 71 74 76 75 74 73 72 70 68 64 62 62 61 61 59 57 57 57 56 55 55 55 55 55 55 56 56 55 56 57 55 53 52 51 50 50 50 50 50 49 46 47 51
63 64 65 65 66 67 68 68 69 69 70 70 71 72 72 72 73 73 73 73 73 73 74 74 74 74 73 73 72 72 72 71 71 71 71 72 74 74 74 73 72 71 68 67 67 65 64 64 63 63 62 61 60 59 59 58 58 57 57 58 57 57 57 57 58 58 58 58 57 56 56 56 55 54 54 53 52 52 53 54 54 53 52 51 53
68 68 69 70 71 72 72 73 74 74 75 75 76 76 77 77 78 79 79 79 79 79 79 79 79 79 78 78 77 76 76 75 74 73 72 73 74 75 75 75 74 73 71 70 68 67 67 66 65 63 60 59 58 56 56 57 58 58 59 60 61 61 61 61 61 61 61 60 59 58 58 58 57 57 57 57 55 55 56 57 57 57 56 55 55
72 73 74 75 76 77 78 79 80 80 80 81 81 82 82 83 84 84 84 84 84 85 85 84 84 84 83 83 82 81 80 79 79 78 77 76 76 76 76 76 76 77 77 78 79 79 79 78 75 72 70 68 67 65 64 64 64 64 64 65 66 66 65 65 65 64 63 62 61 61 61 61 60 60 60 60 59 58 59 59 60 61 60 60 59
76 77 78 79 80 81 83 84 85 85 86 86 87 88 88 88 88 88 88 88 87 86 86 86 85 85 84 83 82 82 81 81 81 81 80 80 80 80 79 78 78 78 78 79 81 82 82 81 80 79 77 76 75 75 74 73 71 69 69 69 69 68 67 66 66 65 64 64 63 63 63 64 63 63 63 63 62 62 61 61 62 64 63 62 62
79 81 82 82 83 85 87 88 89 89 89 89 90 89 89 88 88 87 86 85 83 82 82 81 80 79 78 78 78 77 77 77 78 79 79 80 81 82 82 82 81 80 80 80 81 81 82 81 81 80 79 78 77 75 74 73 71 70 70 70 69 68 67 67 66 65 65 64 64 64 64 65 66 66 65 65 65 65 64 63 64 65 63 61 62
82 84 85 85 86 88 88 89 89 88 88 86 85 84 82 80 79 77 75 74 73 72 71 69 68 68 68 68 68 68 68 69 69 71 72 74 76 78 80 81 81 82 82 82 83 83 83 83 83 82 81 79 77 75 73 72 70 69 69 69 67 67 67 67 66 66 66 66 66 67 67 67 68 68 67 66 66 66 65 64 64 64 62 61 62
85 86 86 86 85 84 84 83 82 81 79 76 74 71 68 65 63 61 59 58 57 55 55 54 54 55 55 55 55 55 56 56 56 58 59 61 64 67 69 71 74 76 78 80 81 82 83 83 83 83 82 80 78 75 72 70 68 67 67 67 66 65 66 67 68 68 69 69 70 70 70 70 69 68 67 66 66 65 64 63 63 63 62 61 62
84 83 81 80 77 75 74 72 70 67 64 62 58 54 50 48 47 46 44 43 43 43 43 43 44 45 45 46 46 46 46 46 46 47 48 50 51 54 56 58 60 63 66 69 71 72 74 75 77 78 78 77 76 74 70 67 66 65 66 66 65 65 65 67 69 69 70 71 72 72 71 70 69 66 64 63 62 62 62 62 61 60 60 59 60
76 73 70 67 64 61 58 56 54 52 49 45 41 38 37 37 36 36 37 37 38 40 41 42 43 43 44 45 45 44 44 43 43 43 44 45 46 47 48 49 51 53 54 56 58 60 62 64 66 67 68 68 68 68 66 64 64 64 65 66 66 66 67 68 69 70 70 71 71 70 69 67 65 62 60 59 59 59 59 58 57 55 55 55 56
63 59 55 52 50 48 46 45 44 41 37 33 32 33 33 33 34 35 37 38 39 40 40 40 40 40 41 42 42 42 42 41 41 42 42 43 44 45 45 45 46 46 47 48 49 51 53 55 56 58 59 60 61 62 62 62 63 64 65 66 67 67 68 68 69 69 68 67 67 66 64 62 60 58 57 57 57 56 55 53 52 52 53 53 54
48 45 44 43 42 41 40 38 36 33 30 30 31 32 32 33 35 36 37 38 38 37 37 37 37 37 38 38 38 39 40 40 41 42 42 43 44 44 44 44 44 44 44 44 44 44 45 46 48 49 50 52 54 55 57 58 60 61 62 64 65 65 65 65 65 64 63 62 62 61 59 58 57 55 54 54 54 53 53 51 50 50 51 52 52
37 36 35 34 33 32 31 29 29 29 29 31 31 32 33 34 34 34 35 35 35 35 35 36 37 37 37 37 37 38 39 40 41 42 42 42 42 42 42 42 42 42 42 42 42 43 43 43 44 44 45 47 48 49 50 52 53 54 56 58 59 59 59 60 60 59 58 58 58 57 56 55 54 53 52 53 52 52 52 51 50 50 51 52 52
30 28 27 27 27 27 27 27 28 29 31 32 32 32 33 32 32 32 33 33 34 35 36 36 36 36 36 36 36 37 38 39 39 40 39 39 39 38 38 38 38 39 39 39 40 40 40 40 41 41 42 44 45 46 46 47 48 49 50 52 53 54 55 55 56 56 56 55 55 55 54 53 53 52 52 52 52 51 52 52 51 50 51 52 52
28 28 28 28 28 28 29 30 30 30 31 31 31 31 32 32 32 33 34 34 34 35 35 35 35 34 34 34 34 34 35 35 36 35 35 34 34 34 34 34 35 36 37 38 39 40 40 40 41 41 42 43 44 45 46 47 47 48 49 50 51 52 53 54 55 55 55 55 55 54 53 53 53 53 52 52 51 51 51 52 51 50 51 52 52
29 30 30 31 31 31 32 31 31 30 31 30 30 31 32 31 32 33 33 33 33 33 33 32 32 32 32 32 31 31 30 31 31 31 31 32 32 33 34 35 36 38 39 41 42 42 43 44 44 45 46 46 47 48 48 49 50 51 52 52 53 54 55 56 56 57 56 56 56 55 54 54 54 54 53 53 51 50 50 50 49 49 50 52 52
30 31 32 33 32 32 30 29 29 28 29 29 29 29 29 29 30 31 32 32 31 31 30 29 29 28 28 28 28 27 27 27 29 30 31 33 34 34 34 34 35 37 39 41 42 41 41 42 43 44 45 46 47 47 48 49 50 51 51 52 53 54 55 56 56 57 57 57 57 57 56 55 55 55 55 54 53 52 51 50 49 49 50 51 52
31 31 32 31 29 28 28 27 27 27 27 27 27 27 27 28 28 29 29 29 28 27 26 25 25 24 24 24 26 26 27 27 28 29 30 31 31 31 31 31 33 35 37 38 38 37 38 39 40 41 42 42 43 43 44 46 47 47 48 49 50 51 52 52 53 54 54 55 56 55 55 55 55 55 55 55 55 55 53 52 51 50 50 51 52
29 29 28 27 27 27 28 28 28 27 27 26 25 25 25 25 25 25 25 24 23 22 22 23 23 24 24 24 24 25 26 26 26 26 27 28 28 28 28 30 32 34 35 35 33 33 34 35 35 36 37 38 39 40 42 43 45 46 47 47 48 49 50 50 51 51 52 53 53 53 53 53 54 54 54 55 56 55 54 53 52 51 51 52 53
26 25 25 25 26 27 28 27 27 25 24 23 22 21 21 21 21 21 21 21 21 22 22 23 24 25 25 24 23 23 24 24 24 24 25 26 26 26 26 29 31 31 31 30 29 28 29 31 32 34 36 38 39 41 43 45 46 48 49 50 50 51 52 52 52 52 52 52 52 52 52 52 52 52 53 54 55 55 54 53 53 53 52 53 54
24 24 24 25 25 26 26 24 23 21 20 19 18 18 17 17 18 19 21 22 23 24 24 24 23 23 23 22 22 22 22 23 24 25 26 26 25 24 25 27 29 29 28 27 27 27 28 30 32 35 37 40 42 44 45 46 47 49 50 50 50 50 50 51 51 51 51 51 51 52 51 51 52 52 52 52 53 54 53 53 54 54 54 55 55
24 24 24 23 23 22 21 20 18 17 16 16 16 16 16 16 17 18 19 20 21 22 22 22 21 21 21 22 22 22 23 24 26 28 29 28 26 24 24 25 26 27 27 27 28 28 29 31 33 35 38 40 42 43 43 42 42 42 42 41 42 41 41 41 42 42 43 44 46 48 49 50 51 53 53 53 53 54 54 54 55 56 56 56 56
24 23 22 20 19 18 16 15 15 14 14 15 15 16 16 16 16 16 16 16 16 17 18 19 20 20 20 21 22 24 25 27 28 29 30 30 28 25 25 26 27 27 27 28 29 30 32 33 34 35 36 37 38 37 36 33 32 32 31 31 32 33 34 34 35 37 38 38 38 40 44 46 48 51 53 54 54 54 55 56 57 58 58 58 57
21 20 18 16 15 14 13 13 13 13 14 14 14 13 13 12 11 11 12 12 13 14 15 16 17 18 19 21 23 25 27 28 29 30 30 30 27 25 25 27 29 29 29 30 31 32 34 35 36 36 35 35 34 33 31 30 29 28 29 29 29 30 31 32 34 35 38 39 39 39 41 43 44 47 52 55 56 56 56 57 59 60 60 59 58
16 15 14 13 12 12 12 12 12 11 11 10 9 8 8 8 9 10 11 12 13 14 15 16 17 18 19 21 23 25 27 28 29 30 30 28 26 23 24 26 28 29 29 30 32 34 36 37 37 37 36 34 33 32 31 30 30 30 29 30 30 31 32 33 34 36 38 40 41 42 42 43 44 46 49 53 55 58 58 58 60 62 62 61 60
12 12 11 11 10 10 10 9 8 7 6 6 7 8 9 10 11 13 14 15 15 16 17 18 19 20 21 23 25 26 27 27 27 27 28 27 24 23 23 25 26 27 27 29 31 34 36 38 38 37 35 33 33 34 33 32 32 32 31 31 31 32 33 34 36 37 39 40 42 43 44 44 45 47 49 51 53 57 60 60 62 63 63 63 61
9 8 8 8 7 6 5 5 5 5 7 8 9 10 12 13 14 15 17 18 19 20 21 22 23 24 25 25 26 27 27 27 27 27 26 25 23 23 24 25 26 26 26 28 31 34 36 37 38 37 35 33 33 34 34 32 31 33 33 32 32 33 35 37 39 40 40 42 43 45 46 45 46 48 52 52 52 55 59 62 63 64 65 65 63
4 4 4 4 4 5 6 7 8 9 9 10 11 13 14 15 16 18 19 21 23 24 25 26 27 27 28 28 29 29 30 30 29 29 28 26 24 23 24 26 26 25 25 27 29 32 35 36 37 36 34 33 33 34 34 31 28 29 30 31 32 34 37 39 41 43 43 44 45 47 48 48 47 48 52 54 53 54 57 62 65 65 66 67 65
6 7 8 9 9 9 9 10 10 10 11 12 13 14 16 17 18 20 21 23 25 27 27 28 29 30 31 32 33 33 33 33 32 32 30 28 25 23 25 26 25 24 24 25 27 30 32 35 36 35 33 32 32 33 33 30 28 27 27 29 32 35 38 40 42 43 44 45 46 48 49 51 50 49 51 55 56 54 55 61 66 67 67 68 67
12 11 11 10 10 10 10 10 11 11 12 13 14 15 16 17 19 21 23 25 26 27 28 29 30 31 32 34 36 36 37 37 36 36 34 30 26 24 25 26 26 24 24 26 28 30 33 34 35 34 33 31 32 32 32 29 27 27 28 30 33 35 37 38 39 40 39 40 42 45 48 51 52 50 50 54 57 55 54 59 66 68 68 69 69
10 10 9 9 9 9 10 10 11 12 13 13 14 16 17 19 20 22 23 25 26 26 27 28 30 31 33 35 36 38 39 39 40 40 39 34 29 25 25 27 26 25 25 28 30 31 34 35 34 33 32 30 30 30 29 26 24 25 28 31 32 32 33 33 33 35 36 37 38 40 44 48 50 50 51 53 56 55 54 57 64 68 69 70 71
9 9 9 9 9 10 10 11 12 12 13 14 15 17 18 20 21 22 23 24 25 26 27 28 30 31 33 34 36 38 39 40 42 42 41 38 33 28 27 28 28 27 28 30 31 32 34 34 33 32 31 29 28 27 25 23 23 25 27 28 28 27 26 27 28 31 34 36 37 38 41 45 47 48 50 53 55 54 53 55 61 67 69 70 71
10 10 10 10 10 11 12 12 13 14 15 16 17 18 19 20 21 22 22 23 25 26 27 28 29 30 32 33 35 36 38 39 41 42 42 40 36 32 29 29 29 29 31 32 31 32 35 35 33 32 31 28 26 25 22 20 22 24 24 24 24 23 21 22 24 26 28 31 33 35 39 43 46 47 49 52 53 53 53 54 59 65 70 71 72
10 10 11 11 12 13 13 14 15 16 16 17 18 19 19 20 21 22 23 23 24 25 26 27 28 29 31 32 33 35 36 37 39 40 41 41 39 35 31 30 29 30 32 33 32 32 36 37 35 33 30 27 24 21 18 19 21 21 20 21 21 19 18 18 19 22 24 25 27 32 37 42 45 46 49 51 51 51 52 53 57 64 69 71 72
10 11 11 12 13 14 15 15 16 17 17 18 19 19 20 21 21 22 23 24 24 25 26 27 28 29 30 31 32 33 34 36 37 39 40 40 40 38 34 30 28 28 30 32 31 32 35 37 36 33 30 26 21 18 16 17 18 18 18 19 18 15 14 15 16 17 19 18 21 27 34 40 43 45 47 49 49 50 52 53 57 64 70 71 72
12 12 12 13 14 14 15 16 17 17 18 18 19 20 20 21 22 23 24 24 25 25 26 27 28 29 29 30 31 32 33 34 35 37 39 39 39 39 37 33 28 26 27 28 28 31 34 36 35 33 29 24 18 14 13 14 16 16 18 19 18 15 13 13 12 11 11 10 15 23 31 37 41 43 45 46 47 49 51 52 57 64 69 71 72
13 13 14 14 15 15 16 16 17 18 18 19 20 20 21 22 22 23 24 24 25 26 26 27 28 28 29 29 30 30 31 32 33 35 37 38 39 39 38 35 31 27 24 25 27 30 33 36 34 32 29 23 16 11 11 13 13 14 16 18 18 14 11 9 7 6 6 9 15 22 29 35 39 41 42 43 45 47 49 53 58 64 67 69 71
14 15 15 15 16 16 16 17 18 18 19 20 21 21 22 22 23 23 24 24 25 26 26 27 28 28 29 29 29 29 30 31 32 33 35 37 38 38 38 37 34 29 24 23 25 28 32 34 34 30 28 25 18 11 9 11 12 12 12 15 17 13 8 4 3 5 9 12 16 21 27 32 35 37 39 41 43 46 49 54 59 63 65 68 70
Wind_Direction
278 278 278 278 279 281 282 284 285 287 288 288 287 286 286 285 285 284 284 283 281 279 280 281 281 284 286 282 282 288 284 274 269 268 271 273 272 270 268 270 280 287 286 284 282 280 279 278 279 278 278 277 276 276 276 276 276 277 278 278 279 280 280 281 280 278 273 269 268 267 265 265 265 265 268 272 274 275 275 276 276 277 279 279 278
282 282 282 281 281 282 283 284 285 287 288 289 290 289 288 287 286 286 286 285 283 281 280 280 281 284 285 281 282 288 286 278 273 272 273 273 273 272 269 270 281 289 288 285 282 280 278 278 277 275 274 274 274 274 275 275 275 275 276 276 277 278 278 277 277 276 273 268 266 265 264 264 263 262 262 266 271 273 275 278 280 281 282 282 280
282 283 284 284 284 284 285 285 286 287 287 288 289 290 290 289 289 289 288 288 286 285 283 282 282 283 284 282 282 285 284 279 275 272 274 276 278 276 272 272 282 288 287 284 282 281 280 277 275 274 274 274 274 274 274 274 275 275 275 275 275 275 275 274 274 273 271 267 263 262 261 260 261 261 260 260 265 272 277 279 282 283 284 283 280
281 282 283 284 285 285 285 286 286 287 287 288 288 289 289 290 290 290 290 289 289 288 287 286 284 284 283 282 281 281 281 279 275 273 276 280 281 278 274 275 281 284 283 282 282 280 279 276 275 275 275 274 273 273 274 274 274 273 272 272 272 272 272 271 270 269 268 265 261 258 258 258 258 259 258 257 261 270 276 279 282 283 282 280 277
282 283 283 284 285 285 285 285 285 286 287 287 287 288 288 288 289 289 289 289 289 289 289 288 287 285 284 283 282 280 278 277 275 274 276 279 280 278 276 277 279 280 279 280 279 277 276 275 274 274 272 270 272 273 272 270 268 267 268 269 270 270 268 267 266 265 264 263 259 257 257 257 256 255 256 259 265 271 275 278 281 282 280 278 274
284 284 283 284 284 284 284 284 284 285 285 286 286 287 287 287 288 288 288 288 287 287 287 287 286 286 285 284 283 281 279 277 275 274 275 277 278 278 278 278 276 275 277 276 274 272 272 272 272 270 269 269 270 270 267 263 263 266 269 271 270 269 267 264 262 261 261 261 259 257 257 256 254 253 257 263 268 272 275 278 279 278 277 274 271
285 284 284 283 283 283 283 283 283 283 283 284 284 284 285 285 285 286 285 285 285 285 285 284 284 284 284 284 283 281 280 278 275 275 276 275 275 276 276 275 274 274 276 274 271 269 269 269 269 268 268 269 268 266 265 263 264 269 272 272 271 268 266 264 261 260 259 259 258 257 255 254 254 256 260 265 268 271 274 277 277 275 274 271 266
285 285 284 284 284 283 283 283 283 282 282 282 283 282 283 283 283 283 283 283 283 282 282 282 282 282 282 282 282 281 279 276 274 275 275 274 274 275 274 273 273 274 274 273 270 269 268 268 269 268 266 267 266 266 266 266 267 271 273 272 269 266 264 263 261 259 257 256 256 255 253 253 255 259 262 265 267 270 272 275 276 273 272 270 265
285 285 285 284 284 284 284 284 284 283 283 282 282 282 281 281 281 280 280 280 280 280 279 279 279 279 278 278 277 276 276 275 273 273 273 273 273 274 273 273 273 273 272 271 270 270 268 267 268 268 266 266 266 267 268 268 268 270 271 269 265 263 261 260 258 257 255 254 253 253 253 254 257 260 263 265 266 268 271 274 275 273 271 271 266
286 286 285 285 284 284 283 283 283 282 282 282 281 281 281 280 280 280 280 279 279 279 278 278 277 276 275 274 272 271 271 271 270 269 269 270 272 273 273 272 271 270 269 269 270 270 268 266 265 264 264 265 267 268 267 266 266 268 268 264 261 259 257 256 256 255 253 253 253 254 255 257 258 261 264 266 265 266 269 272 273 274 272 271 266
287 287 286 286 285 285 284 284 283 282 282 282 282 281 281 281 281 281 281 281 280 280 279 278 277 275 274 272 271 269 268 267 266 266 267 268 269 270 270 270 270 268 266 265 267 268 267 265 263 263 264 266 267 266 265 264 265 265 263 259 256 255 255 254 254 254 254 256 257 259 260 261 262 263 264 266 265 263 265 268 271 273 273 268 262
286 285 285 285 284 284 283 283 282 282 282 281 281 281 281 281 281 281 281 280 280 280 280 279 278 277 275 274 272 270 268 266 265 265 265 266 267 268 268 269 269 267 264 264 265 266 266 265 265 266 267 267 265 263 262 262 262 260 256 254 253 252 252 253 254 256 258 260 262 264 266 267 267 265 264 264 263 260 261 264 266 270 270 264 258
284 284 283 283 282 282 281 281 280 280 279 279 279 278 278 278 278 278 278 279 279 279 279 279 278 277 276 275 274 272 270 268 267 266 265 265 266 267 268 268 268 266 265 265 266 267 266 264 265 265 266 264 262 259 258 257 256 253 252 251 250 250 250 252 255 258 261 264 265 267 269 270 269 266 262 261 260 257 257 259 260 263 265 259 254
285 284 284 283 282 281 280 280 279 278 278 278 277 277 277 277 277 276 276 277 277 277 277 278 278 277 277 276 275 274 273 271 270 269 268 267 266 267 268 268 268 267 267 266 266 266 264 261 260 260 259 257 255 253 252 250 249 249 249 248 248 250 252 253 256 260 263 266 267 268 269 269 268 264 260 258 257 256 254 254 254 256 258 254 250
285 284 283 283 283 282 281 281 281 280 280 279 279 278 278 278 277 277 277 276 276 276 276 276 276 276 276 275 274 274 273 272 271 270 269 268 267 266 267 267 266 266 266 265 265 264 262 260 258 255 252 249 248 247 246 246 246 246 247 248 249 251 254 256 259 263 266 267 268 268 268 267 266 263 258 256 256 254 252 251 251 251 252 249 247
286 286 286 285 285 285 285 285 284 283 283 282 282 281 281 281 280 279 279 278 278 277 277 276 276 275 275 274 273 272 271 270 270 269 268 267 266 265 265 265 264 264 264 264 265 265 266 266 265 261 257 254 251 250 249 249 249 249 250 253 255 257 259 261 263 266 268 268 268 267 266 265 264 261 256 254 253 252 251 250 249 249 249 246 244
289 289 289 288 288 288 288 287 287 286 286 285 285 284 284 283 282 282 281 280 279 279 278 277 276 275 274 274 272 271 270 269 268 267 267 266 266 265 265 264 264 263 263 264 266 267 268 270 270 269 267 265 263 262 261 261 261 261 260 261 262 263 264 265 266 267 267 267 267 265 264 263 261 258 254 252 252 251 250 250 250 250 248 245 243
290 290 290 290 290 290 289 289 289 288 288 287 287 286 286 285 284 283 283 281 280 279 278 277 276 275 274 273 272 271 270 269 267 267 266 265 265 265 265 264 264 263 263 263 264 266 267 269 270 270 270 270 269 268 268 269 269 268 267 266 266 266 266 266 266 266 266 266 265 263 261 260 257 254 252 251 251 251 250 250 250 250 248 245 243
291 291 291 291 291 291 290 290 290 290 289 289 288 287 287 286 285 284 283 282 281 280 279 278 277 276 274 273 272 271 270 269 268 267 266 265 265 264 264 264 264 263 263 263 264 264 265 266 267 268 269 269 270 270 269 269 269 269 268 267 266 266 265 264 263 263 263 263 262 260 258 256 255 252 250 250 250 251 251 251 252 252 250 246 244
292 293 292 292 292 292 291 291 290 290 289 288 287 287 286 285 284 284 283 282 282 281 280 280 279 278 277 276 275 274 273 271 270 269 268 266 266 265 265 264 264 264 263 263 263 263 264 265 266 266 267 268 268 268 267 267 267 266 266 265 264 263 261 260 259 259 259 258 258 257 255 253 252 251 250 250 250 251 252 253 253 254 251 247 244
294 294 294 293 292 292 291 290 289 288 287 287 286 286 286 285 285 284 284 284 284 284 284 283 282 281 281 280 278 277 276 274 273 271 270 269 268 267 267 266 266 265 264 264 263 263 263 263 264 265 266 267 267 266 266 266 265 264 263 262 261 259 258 257 257 256 256 255 255 254 254 253 252 252 252 252 252 252 254 254 254 253 250 247 245
295 294 294 293 291 290 289 288 288 287 287 287 287 286 285 285 284 284 285 286 287 286 286 286 285 285 284 283 282 280 279 277 275 274 273 271 271 270 270 269 268 267 266 266 265 264 264 264 263 264 264 265 265 266 265 263 261 260 259 259 258 257 256 255 255 255 255 255 254 254 254 254 254 254 254 254 254 254 254 254 252 250 248 245 244
295 294 293 292 291 289 289 289 289 289 288 287 286 285 284 283 283 284 286 287 287 287 287 287 287 287 286 285 284 283 281 280 278 277 276 275 274 273 273 272 271 270 269 267 266 265 263 263 262 261 262 262 262 262 261 259 258 257 256 256 256 255 255 254 255 255 255 255 256 255 255 255 255 255 255 255 254 253 252 250 248 246 243 242 241
294 293 292 291 291 291 290 291 290 289 287 286 285 285 284 284 285 286 287 287 287 287 287 288 288 288 287 286 285 283 282 281 280 279 279 278 278 277 276 276 275 274 273 271 269 267 265 264 263 262 261 260 259 258 257 256 255 255 254 255 255 255 255 255 256 256 256 256 256 256 255 255 255 255 254 253 251 250 248 245 242 241 239 238 237
294 294 294 293 293 292 292 292 291 288 286 285 286 286 286 287 287 288 288 288 287 287 287 288 289 289 289 288 286 284 283 282 282 282 282 281 281 280 280 279 278 277 277 276 274 273 271 269 268 266 265 263 261 260 259 258 257 256 256 257 257 257 258 258 257 257 256 256 255 255 254 254 253 252 251 249 247 245 242 240 238 238 237 237 236
297 298 298 299 298 297 296 295 292 290 288 287 287 288 289 289 289 289 288 287 287 287 288 289 289 289 289 289 287 285 283 283 283 283 283 284 284 283 283 282 281 280 280 278 277 275 273 272 270 269 267 265 264 263 261 260 259 258 258 257 257 257 257 256 256 255 254 253 253 253 252 252 251 249 247 245 242 240 240 239 236 236 236 237 236
299 300 302 303 302 300 298 296 293 292 290 289 290 290 289 289 289 288 287 287 287 288 288 289 289 289 288 287 285 284 283 283 283 283 284 284 284 283 283 282 280 280 279 277 276 275 273 272 270 268 267 265 264 264 263 262 261 259 258 256 256 255 255 254 254 254 253 252 251 250 250 249 248 246 243 242 240 238 238 238 236 234 236 236 236
295 297 299 299 299 298 297 296 295 293 292 291 291 290 289 289 289 289 288 288 288 288 289 290 290 289 288 287 286 285 284 284 283 284 284 285 284 284 283 282 280 279 278 277 276 275 274 273 272 271 270 269 267 266 265 263 262 260 259 258 257 256 255 255 254 254 253 252 251 249 248 246 246 244 242 241 239 238 237 237 236 234 234 235 235
292 292 294 295 296 297 296 296 295 293 292 292 291 289 290 290 290 289 289 290 291 291 292 292 290 289 289 288 287 286 285 285 286 287 287 287 286 285 284 283 282 280 278 277 275 275 275 275 275 274 272 271 269 268 266 265 264 262 261 260 259 258 257 256 256 255 254 253 252 250 247 245 244 243 241 239 238 236 236 236 235 233 231 232 232
291 291 293 295 296 296 295 295 294 294 294 294 293 292 292 292 290 290 291 293 294 295 294 292 290 289 289 288 288 288 287 285 285 285 285 285 287 287 287 285 282 280 278 277 277 278 278 276 275 274 273 271 270 269 267 266 264 263 262 260 259 258 257 256 255 254 253 253 251 250 248 245 243 242 240 238 236 235 234 233 233 231 229 228 228
293 293 294 295 296 297 298 300 301 302 302 301 300 297 296 294 293 293 294 295 296 295 294 293 292 291 289 288 288 288 287 286 286 286 288 291 293 293 291 287 284 282 281 282 283 283 281 279 278 278 277 276 275 273 271 269 267 265 263 261 259 258 256 255 254 253 251 250 249 248 246 244 242 240 239 238 236 234 232 231 230 229 228 226 224
294 293 295 298 301 303 304 306 308 308 307 306 304 301 299 298 297 296 296 297 297 297 296 294 294 294 294 292 290 290 291 293 293 295 298 300 300 297 294 291 289 290 289 289 288 286 284 283 283 282 282 281 280 278 276 274 272 269 267 265 263 261 260 258 256 254 252 250 248 246 245 243 241 239 237 236 235 233 231 229 228 227 226 224 222
295 296 300 305 306 306 306 307 308 308 307 306 305 304 303 302 302 302 303 303 303 301 299 298 298 298 298 297 297 298 299 300 301 303 307 308 305 300 296 295 295 295 294 292 290 288 287 286 287 286 286 286 284 281 278 275 272 270 268 266 265 263 262 261 259 257 255 252 250 247 244 242 241 238 236 234 233 231 229 226 225 225 224 222 220
300 303 306 307 306 305 305 306 306 305 305 306 306 306 306 305 305 306 306 306 305 304 303 303 302 301 302 304 306 307 307 308 310 312 314 313 309 302 299 300 301 300 297 294 292 291 290 290 291 291 292 292 289 286 281 275 271 267 266 265 264 263 262 261 260 258 256 254 252 249 246 242 240 238 235 233 231 230 227 225 222 222 222 221 219
306 307 307 307 305 304 304 304 303 303 304 306 307 307 309 309 308 308 307 306 306 306 306 306 306 307 309 311 312 312 313 315 316 316 316 316 313 308 305 305 303 300 297 295 293 292 292 292 294 296 298 298 295 289 282 275 270 266 263 261 260 260 260 260 259 257 255 253 251 249 247 243 240 237 234 231 229 227 225 223 221 221 221 220 219
305 305 306 305 304 303 302 301 302 305 307 308 310 311 313 314 314 314 315 314 314 314 313 313 314 314 315 315 316 316 317 318 319 319 319 319 317 313 311 309 305 301 299 298 296 296 296 296 297 298 300 302 299 291 281 273 267 263 259 256 255 254 256 257 258 258 257 254 250 248 246 243 240 238 234 230 226 224 223 220 219 219 219 219 220
302 302 303 302 300 299 301 304 308 311 312 314 316 318 322 326 331 335 336 336 336 335 333 332 331 329 327 325 323 323 322 322 322 322 321 320 318 314 314 313 309 305 302 301 302 301 300 299 299 298 298 300 302 296 283 270 263 260 257 256 255 255 255 255 256 257 258 257 253 249 247 244 241 238 235 231 225 221 220 219 217 217 217 218 219
300 300 299 297 297 300 305 310 314 317 319 324 332 342 354 4 10 11 10 8 5 0 357 355 352 347 342 338 334 331 329 327 325 324 323 322 319 316 314 313 310 306 302 301 303 303 302 301 300 298 295 295 300 301 291 275 264 260 258 255 254 254 254 255 255 255 256 256 253 250 246 244 242 239 236 232 227 221 217 216 216 215 214 215 217
300 298 297 299 301 303 307 314 321 331 346 5 22 33 37 35 32 29 26 22 17 13 10 6 2 357 353 348 344 340 336 332 328 326 324 323 321 318 317 315 313 309 306 304 304 304 304 303 302 300 296 294 297 302 298 283 268 261 259 257 256 257 259 261 261 259 257 255 253 250 245 241 240 238 236 232 228 222 217 214 214 213 213 213 214
299 300 302 305 309 314 329 354 17 37 49 52 51 48 43 38 34 31 28 24 21 18 14 10 5 1 357 353 350 347 344 339 336 333 331 328 325 322 321 320 318 315 312 310 308 307 306 305 305 303 299 295 296 302 302 291 273 262 260 260 261 264 266 267 266 264 261 257 253 250 246 241 237 236 234 232 228 223 217 212 211 211 211 210 211
301 322 342 360 21 42 55 59 60 59 56 51 47 43 39 35 32 28 25 22 20 17 14 10 7 3 359 356 355 354 352 348 345 343 339 335 330 326 325 325 323 321 319 317 314 311 309 308 308 306 302 297 296 301 303 296 280 267 263 264 267 269 270 269 267 265 261 256 252 248 244 240 236 233 232 230 227 222 216 212 210 209 208 208 209
61 57 57 59 61 61 61 58 54 49 45 42 39 36 33 30 28 25 23 21 19 16 13 10 7 5 3 1 360 359 358 357 355 351 347 341 334 330 329 329 327 325 325 324 323 320 316 314 313 311 305 298 296 299 301 295 283 273 270 270 272 273 271 269 267 264 259 255 249 245 241 238 234 230 228 228 226 221 215 211 208 207 206 206 206
65 64 62 60 56 51 47 44 41 38 35 33 31 29 27 25 23 21 20 19 17 14 12 10 8 6 5 4 3 2 1 1 0 358 354 347 338 332 331 331 330 329 329 328 328 328 325 320 317 315 310 301 296 298 299 293 282 276 276 277 278 276 273 269 266 263 258 253 247 241 237 235 231 226 223 223 223 219 214 210 207 205 204 204 204
55 55 51 47 42 38 36 33 30 28 26 25 23 21 19 19 18 16 16 15 13 10 9 8 6 5 4 5 5 4 3 3 2 0 356 351 343 336 332 332 333 333 331 328 328 329 329 325 321 318 315 307 299 298 298 292 284 282 284 284 282 278 273 268 263 258 255 252 247 240 235 231 229 223 218 218 218 216 212 209 206 203 202 202 202
36 37 35 31 28 26 24 22 19 18 16 14 13 12 12 11 10 9 9 8 6 4 4 4 3 1 1 2 3 3 4 4 3 360 357 353 347 338 331 331 333 335 333 330 329 332 333 330 325 323 320 312 304 301 297 291 290 294 294 290 285 280 275 271 266 260 256 252 248 241 234 229 225 220 214 213 213 212 210 208 204 201 201 201 201
17 18 16 14 12 10 9 7 5 4 3 2 2 2 2 1 1 0 1 0 359 358 358 358 358 357 357 358 359 0 2 4 3 360 357 355 350 342 334 330 331 332 333 332 332 336 338 335 331 330 326 317 310 307 301 296 301 306 304 298 294 288 283 279 274 269 264 257 247 238 230 224 220 214 209 207 208 208 207 205 202 199 199 200 199
359 359 357 355 354 353 352 351 351 351 351 351 351 351 351 351 351 351 352 352 351 351 350 350 351 352 352 353 355 356 359 1 2 360 358 356 352 348 342 336 331 330 330 329 332 340 343 340 337 335 332 325 319 314 305 304 313 317 313 310 307 298 288 287 284 279 273 260 242 229 222 217 212 207 203 203 204 204 203 202 199 197 197 198 198
341 340 340 340 340 340 339 339 339 339 339 340 340 340 341 342 343 342 342 342 342 342 342 342 343 345 346 348 350 352 355 358 359 359 358 357 355 353 350 345 339 333 329 328 335 346 349 345 340 339 336 332 326 319 310 311 323 329 327 327 325 310 293 292 293 288 279 260 233 217 212 208 204 200 198 199 201 201 199 198 197 196 196 197 197
331 330 331 332 332 332 331 331 331 331 332 333 333 334 335 336 336 335 335 334 335 335 335 335 336 338 340 342 344 347 350 353 356 357 357 358 357 355 354 353 351 344 335 333 340 349 352 348 344 343 343 338 329 323 321 322 326 332 337 339 339 326 305 295 292 285 271 241 210 201 199 197 194 193 194 196 197 196 194 194 195 194 195 196 196
329 330 330 329 328 328 327 326 326 327 329 329 330 331 332 332 331 331 330 330 330 330 330 330 331 332 334 336 338 340 344 348 352 355 356 357 358 358 356 357 359 357 347 338 341 349 354 352 348 348 350 347 337 328 338 341 337 336 340 343 343 335 315 296 282 254 216 189 180 182 185 187 188 189 190 190 190 190 191 192 193 193 194 195 196
330 329 328 327 326 325 324 325 326 327 328 328 329 330 330 330 329 329 328 328 328 328 327 327 328 328 329 331 333 335 339 343 347 351 354 355 357 359 359 359 2 4 358 347 343 347 353 355 351 349 352 355 351 345 352 359 356 353 349 347 347 347 337 306 261 208 188 179 174 174 178 181 183 183 183 184 186 188 190 191 191 191 192 194 195
Height
5798 5797 5796 5794 5791 5787 5785 5782 5781 5779 5778 5778 5779 5779 5778 5777 5777 5776 5776 5775 5773 5771 5770 5767 5766 5765 5765 5765 5763 5761 5760 5759 5758 5758 5757 5757 5756 5756 5756 5756 5756 5757 5757 5756 5755 5755 5754 5754 5753 5753 5753 5754 5754 5754 5754 5754 5755 5755 5755 5755 5755 5756 5756 5757 5759 5760 5759 5758 5759 5759 5758 5758 5759 5759 5758 5756 5755 5756 5757 5758 5760 5761 5760 5759 5759
5791 5789 5787 5786 5784 5782 5780 5778 5775 5773 5771 5770 5769 5769 5769 5769 5768 5768 5768 5767 5766 5765 5763 5761 5759 5759 5759 5758 5758 5756 5753 5752 5751 5750 5750 5750 5749 5749 5749 5748 5747 5748 5748 5748 5747 5746 5747 5746 5745 5744 5744 5745 5745 5745 5745 5745 5746 5747 5747 5747 5748 5748 5749 5750 5751 5753 5753 5752 5752 5753 5753 5752 5753 5754 5754 5753 5751 5750 5751 5752 5754 5755 5755 5755 5754
5785 5782 5780 5778 5777 5775 5774 5771 5769 5767 5765 5763 5761 5760 5760 5759 5759 5759 5758 5758 5758 5757 5756 5755 5753 5752 5752 5751 5751 5750 5747 5745 5744 5743 5742 5742 5742 5742 5741 5740 5739 5739 5739 5739 5739 5738 5738 5738 5736 5735 5735 5735 5736 5736 5737 5737 5738 5738 5738 5739 5740 5741 5741 5742 5744 5745 5746 5747 5746 5746 5747 5747 5747 5747 5748 5749 5747 5746 5746 5746 5748 5749 5750 5750 5750
5778 5776 5773 5771 5769 5768 5766 5764 5762 5760 5758 5756 5754 5753 5752 5751 5750 5750 5749 5748 5748 5748 5747 5747 5746 5745 5744 5744 5744 5743 5741 5739 5738 5736 5735 5734 5734 5734 5733 5733 5731 5730 5730 5730 5730 5729 5729 5729 5728 5727 5727 5728 5728 5729 5729 5729 5730 5730 5731 5732 5733 5734 5734 5735 5736 5738 5739 5740 5740 5740 5740 5741 5741 5741 5742 5743 5743 5742 5741 5740 5741 5742 5743 5745 5745
5770 5769 5767 5764 5762 5760 5759 5757 5755 5752 5750 5748 5747 5745 5744 5743 5742 5741 5740 5739 5739 5738 5737 5736 5736 5736 5735 5735 5735 5734 5733 5732 5730 5728 5726 5726 5725 5724 5724 5725 5723 5722 5722 5722 5721 5720 5720 5720 5720 5720 5720 5721 5721 5721 5721 5722 5722 5723 5724 5724 5725 5726 5727 5728 5729 5730 5731 5733 5733 5734 5734 5735 5735 5735 5736 5736 5737 5737 5736 5735 5735 5735 5737 5739 5740
5762 5760 5759 5757 5755 5753 5751 5749 5747 5745 5743 5741 5739 5738 5736 5735 5734 5733 5732 5731 5730 5729 5728 5727 5726 5724 5724 5724 5724 5723 5722 5722 5721 5720 5718 5717 5716 5715 5715 5715 5714 5713 5714 5713 5712 5711 5711 5712 5712 5712 5713 5713 5714 5713 5713 5714 5715 5716 5716 5717 5718 5719 5720 5720 5721 5722 5724 5725 5726 5727 5728 5728 5729 5730 5730 5730 5731 5731 5731 5730 5729 5729 5730 5732 5734
5752 5751 5749 5748 5746 5745 5743 5741 5740 5738 5736 5734 5732 5730 5729 5727 5726 5724 5723 5722 5721 5720 5719 5718 5717 5714 5713 5713 5713 5712 5711 5711 5711 5710 5708 5707 5707 5706 5706 5705 5705 5704 5705 5705 5704 5703 5703 5703 5704 5704 5705 5705 5706 5705 5706 5706 5707 5708 5709 5709 5710 5711 5712 5712 5713 5715 5716 5717 5719 5720 5721 5722 5722 5723 5724 5724 5724 5724 5725 5725 5724 5723 5723 5725 5727
5742 5741 5739 5738 5736 5735 5733 5732 5730 5729 5727 5725 5723 5721 5720 5719 5717 5715 5714 5713 5712 5711 5709 5709 5708 5706 5704 5703 5703 5702 5701 5701 5701 5701 5698 5697 5697 5697 5696 5695 5695 5695 5696 5695 5695 5695 5694 5694 5694 5696 5696 5697 5697 5697 5698 5698 5699 5700 5701 5701 5702 5703 5703 5704 5706 5707 5708 5710 5711 5712 5713 5715 5715 5716 5717 5718 5718 5717 5718 5719 5718 5717 5717 5718 5720
5733 5731 5730 5728 5727 5725 5723 5722 5720 5718 5717 5715 5713 5711 5710 5708 5707 5706 5704 5703 5702 5701 5700 5699 5698 5697 5695 5695 5694 5693 5692 5692 5692 5691 5689 5687 5686 5687 5686 5686 5686 5687 5687 5686 5686 5685 5685 5685 5686 5687 5687 5687 5688 5688 5689 5689 5690 5691 5692 5692 5693 5694 5695 5696 5697 5699 5700 5701 5702 5703 5705 5707 5708 5708 5709 5710 5711 5710 5710 5712 5712 5711 5711 5711 5713
5723 5721 5720 5718 5717 5715 5714 5712 5710 5708 5706 5704 5703 5701 5699 5698 5696 5695 5694 5693 5691 5691 5690 5689 5688 5687 5686 5685 5684 5684 5684 5683 5683 5682 5680 5679 5677 5677 5676 5676 5676 5677 5678 5677 5677 5676 5676 5676 5677 5678 5678 5678 5678 5679 5679 5679 5680 5682 5683 5683 5684 5685 5687 5688 5689 5690 5692 5693 5694 5695 5696 5699 5700 5701 5701 5702 5703 5703 5703 5704 5705 5705 5704 5705 5706
5712 5710 5709 5707 5706 5704 5703 5701 5699 5697 5695 5693 5692 5690 5688 5687 5685 5684 5683 5681 5680 5679 5678 5678 5677 5677 5676 5675 5675 5674 5674 5673 5673 5672 5670 5669 5667 5666 5667 5667 5667 5667 5668 5668 5667 5667 5666 5667 5667 5668 5668 5668 5668 5669 5669 5670 5671 5672 5673 5674 5675 5676 5678 5679 5681 5682 5683 5685 5686 5687 5688 5690 5692 5694 5694 5693 5694 5695 5695 5695 5697 5698 5698 5698 5698
5703 5701 5699 5697 5696 5694 5692 5691 5689 5687 5685 5684 5682 5680 5679 5677 5676 5674 5672 5671 5669 5668 5667 5667 5666 5666 5665 5664 5664 5664 5664 5663 5662 5661 5659 5658 5657 5656 5656 5657 5657 5657 5657 5657 5657 5657 5656 5656 5657 5657 5658 5658 5659 5658 5659 5660 5661 5662 5663 5665 5666 5667 5669 5670 5672 5673 5674 5676 5677 5678 5679 5681 5683 5685 5686 5685 5685 5686 5687 5687 5689 5690 5690 5691 5691
5693 5692 5690 5689 5687 5685 5683 5681 5680 5678 5676 5675 5673 5671 5670 5668 5667 5665 5664 5662 5660 5658 5657 5656 5656 5655 5654 5654 5653 5653 5653 5652 5651 5650 5649 5647 5645 5645 5646 5646 5646 5647 5647 5647 5647 5646 5645 5645 5646 5646 5647 5648 5648 5648 5648 5650 5651 5652 5654 5655 5656 5658 5659 5661 5662 5663 5665 5666 5668 5670 5670 5671 5673 5676 5677 5676 5676 5677 5678 5679 5679 5681 5682 5683 5683
5683 5682 5680 5679 5676 5675 5673 5671 5670 5668 5666 5665 5663 5661 5660 5659 5657 5655 5654 5653 5651 5649 5647 5646 5645 5644 5643 5642 5642 5641 5641 5641 5640 5639 5637 5636 5634 5634 5635 5636 5636 5637 5636 5636 5635 5635 5634 5634 5634 5635 5635 5636 5637 5637 5637 5639 5640 5641 5643 5644 5646 5648 5649 5651 5652 5654 5655 5657 5659 5661 5661 5660 5662 5665 5666 5667 5667 5667 5669 5670 5671 5672 5674 5676 5677
5673 5671 5670 5668 5665 5663 5662 5660 5658 5656 5655 5653 5652 5649 5648 5647 5645 5643 5642 5641 5640 5638 5637 5635 5634 5633 5631 5630 5630 5629 5628 5628 5627 5627 5626 5624 5623 5622 5624 5625 5626 5626 5626 5624 5624 5624 5624 5623 5623 5624 5624 5624 5625 5626 5627 5628 5629 5631 5632 5634 5635 5637 5639 5641 5642 5643 5645 5647 5649 5651 5650 5650 5652 5654 5656 5657 5657 5658 5660 5661 5662 5664 5666 5668 5670
5662 5660 5658 5656 5653 5652 5650 5646 5644 5643 5642 5640 5639 5637 5635 5633 5631 5630 5629 5627 5626 5625 5624 5622 5621 5620 5619 5618 5617 5617 5616 5615 5615 5614 5614 5612 5610 5610 5611 5613 5614 5614 5615 5613 5613 5613 5613 5614 5615 5616 5617 5617 5617 5618 5619 5619 5621 5622 5623 5624 5625 5626 5628 5630 5631 5633 5635 5636 5638 5639 5639 5640 5641 5643 5645 5646 5647 5648 5650 5652 5653 5655 5657 5660 5662
5650 5648 5646 5644 5641 5639 5636 5632 5630 5630 5628 5626 5624 5622 5621 5618 5616 5615 5614 5612 5611 5610 5608 5607 5606 5605 5605 5604 5603 5603 5603 5602 5601 5602 5601 5599 5598 5597 5598 5600 5601 5602 5603 5602 5601 5601 5602 5602 5603 5605 5607 5608 5609 5610 5611 5612 5613 5614 5614 5614 5614 5616 5618 5619 5620 5622 5624 5625 5627 5628 5628 5628 5630 5632 5634 5635 5637 5638 5639 5642 5644 5645 5647 5650 5653
5639 5636 5634 5632 5629 5626 5622 5618 5616 5615 5613 5611 5609 5606 5605 5602 5599 5598 5597 5595 5594 5593 5592 5591 5590 5589 5589 5588 5588 5588 5588 5588 5587 5587 5587 5586 5584 5584 5584 5586 5588 5589 5590 5590 5590 5590 5590 5591 5591 5592 5594 5595 5597 5598 5599 5601 5602 5602 5602 5602 5603 5604 5606 5606 5607 5610 5612 5613 5615 5616 5616 5617 5619 5621 5623 5625 5627 5627 5629 5633 5635 5635 5637 5641 5644
5629 5625 5623 5621 5618 5613 5609 5605 5603 5601 5598 5596 5594 5591 5588 5586 5583 5581 5580 5578 5577 5576 5575 5575 5574 5574 5573 5572 5573 5572 5573 5573 5572 5571 5572 5572 5570 5570 5570 5572 5574 5575 5576 5576 5577 5577 5578 5579 5580 5580 5581 5583 5584 5585 5586 5588 5589 5589 5589 5589 5591 5593 5594 5594 5595 5598 5599 5600 5602 5603 5604 5606 5607 5609 5612 5615 5616 5617 5619 5623 5624 5625 5629 5632 5635
5618 5614 5611 5609 5606 5601 5596 5592 5590 5588 5585 5582 5579 5576 5574 5571 5569 5567 5565 5563 5563 5562 5561 5560 5560 5560 5559 5559 5559 5559 5559 5559 5558 5557 5557 5557 5556 5556 5556 5558 5560 5561 5561 5562 5563 5564 5565 5566 5567 5568 5569 5570 5571 5572 5573 5574 5576 5577 5576 5577 5579 5581 5581 5581 5583 5584 5585 5587 5589 5590 5592 5594 5595 5597 5601 5604 5606 5607 5609 5612 5614 5615 5619 5623 5625
5606 5602 5599 5595 5592 5588 5583 5579 5577 5575 5572 5569 5566 5564 5562 5560 5557 5555 5554 5553 5552 5552 5551 5550 5549 5549 5548 5547 5547 5547 5546 5547 5546 5545 5545 5545 5544 5544 5544 5545 5546 5546 5546 5548 5549 5550 5551 5552 5553 5554 5554 5555 5557 5558 5560 5561 5563 5564 5564 5564 5566 5568 5569 5569 5570 5571 5572 5574 5576 5577 5579 5581 5583 5586 5591 5593 5596 5598 5600 5602 5603 5606 5609 5612 5615
5592 5589 5585 5582 5579 5575 5571 5568 5566 5563 5561 5559 5557 5555 5553 5551 5549 5547 5547 5546 5545 5544 5543 5542 5541 5541 5540 5538 5538 5537 5537 5536 5536 5535 5534 5534 5534 5533 5533 5534 5533 5533 5533 5535 5536 5537 5537 5538 5539 5539 5539 5541 5543 5546 5548 5549 5550 5551 5551 5552 5553 5555 5556 5557 5558 5559 5560 5562 5563 5565 5568 5569 5572 5577 5581 5584 5586 5589 5590 5591 5593 5595 5598 5601 5604
5579 5576 5572 5569 5566 5564 5561 5559 5557 5554 5552 5551 5550 5548 5546 5545 5544 5542 5541 5541 5540 5538 5537 5536 5535 5534 5532 5531 5530 5529 5528 5528 5527 5527 5526 5525 5525 5524 5523 5523 5523 5522 5522 5523 5523 5524 5524 5524 5525 5525 5526 5529 5531 5532 5534 5536 5537 5538 5539 5539 5540 5542 5543 5545 5545 5547 5549 5551 5552 5555 5557 5560 5563 5568 5572 5575 5576 5578 5579 5581 5583 5586 5588 5591 5594
5569 5566 5563 5560 5558 5555 5554 5552 5550 5548 5546 5545 5543 5542 5541 5540 5539 5538 5536 5535 5534 5533 5532 5530 5529 5527 5526 5524 5523 5522 5521 5520 5520 5519 5518 5517 5516 5515 5515 5515 5514 5514 5513 5513 5513 5513 5513 5514 5514 5515 5516 5517 5519 5520 5521 5523 5525 5526 5526 5527 5528 5529 5531 5533 5534 5536 5539 5541 5543 5545 5549 5552 5555 5559 5563 5565 5566 5568 5569 5571 5574 5577 5579 5582 5584
5561 5559 5556 5554 5552 5550 5548 5547 5544 5543 5541 5540 5539 5538 5537 5536 5534 5533 5532 5530 5529 5528 5527 5525 5523 5522 5520 5519 5518 5516 5515 5514 5513 5512 5511 5510 5509 5508 5508 5507 5507 5506 5506 5506 5505 5505 5505 5506 5506 5506 5507 5508 5509 5510 5511 5512 5514 5515 5516 5517 5518 5519 5521 5523 5524 5526 5529 5532 5534 5537 5540 5543 5546 5550 5552 5555 5557 5558 5560 5562 5566 5569 5571 5574 5577
5556 5554 5551 5549 5547 5545 5544 5542 5540 5539 5537 5536 5535 5534 5532 5531 5530 5528 5527 5525 5524 5523 5521 5520 5518 5517 5515 5514 5512 5511 5510 5508 5507 5506 5505 5504 5503 5502 5502 5501 5500 5499 5499 5498 5498 5498 5498 5498 5498 5499 5499 5500 5500 5501 5502 5503 5504 5506 5507 5508 5509 5510 5512 5513 5515 5517 5520 5522 5525 5527 5530 5533 5536 5540 5542 5545 5547 5549 5551 5554 5558 5561 5563 5566 5569
5552 5550 5548 5545 5544 5542 5540 5539 5537 5535 5533 5532 5531 5529 5527 5526 5525 5523 5522 5520 5519 5518 5516 5515 5514 5512 5510 5509 5507 5506 5505 5504 5502 5501 5500 5499 5498 5497 5496 5495 5494 5493 5492 5491 5491 5490 5490 5491 5491 5491 5492 5492 5492 5492 5493 5494 5496 5497 5498 5498 5499 5501 5502 5504 5505 5507 5509 5512 5515 5518 5521 5524 5527 5530 5533 5536 5538 5541 5543 5545 5549 5553 5556 5558 5561
5548 5546 5544 5542 5540 5539 5537 5535 5533 5531 5529 5528 5526 5525 5523 5521 5520 5518 5516 5515 5514 5513 5512 5510 5509 5507 5505 5504 5503 5501 5500 5499 5497 5496 5495 5494 5492 5491 5490 5489 5488 5487 5486 5485 5483 5483 5483 5483 5483 5483 5483 5483 5484 5484 5485 5485 5486 5487 5487 5488 5490 5491 5492 5493 5495 5496 5499 5502 5505 5509 5512 5515 5518 5521 5524 5527 5530 5533 5535 5537 5542 5546 5548 5550 5553
5544 5543 5541 5539 5537 5535 5533 5531 5529 5527 5525 5524 5522 5520 5518 5517 5515 5513 5511 5510 5509 5508 5507 5506 5504 5502 5501 5499 5498 5497 5496 5494 5492 5491 5489 5488 5487 5486 5485 5483 5482 5480 5479 5477 5476 5476 5476 5475 5475 5475 5475 5474 5474 5475 5475 5475 5476 5476 5477 5478 5480 5481 5482 5483 5485 5486 5489 5492 5495 5499 5502 5506 5509 5512 5515 5517 5521 5524 5527 5530 5534 5538 5541 5543 5546
5541 5539 5537 5535 5533 5531 5529 5527 5525 5523 5521 5519 5518 5516 5514 5513 5511 5509 5507 5506 5505 5504 5503 5501 5500 5498 5497 5495 5493 5492 5491 5490 5488 5486 5485 5483 5482 5480 5479 5477 5475 5473 5472 5470 5469 5469 5469 5468 5467 5466 5466 5465 5465 5466 5466 5466 5466 5466 5467 5468 5469 5470 5471 5472 5474 5476 5479 5481 5484 5488 5492 5495 5499 5502 5505 5508 5511 5515 5518 5522 5526 5530 5533 5536 5539
5537 5535 5533 5531 5529 5527 5525 5523 5521 5519 5517 5515 5513 5512 5510 5508 5507 5505 5504 5503 5501 5500 5498 5497 5495 5494 5493 5491 5489 5487 5486 5485 5484 5482 5480 5479 5477 5475 5473 5471 5469 5467 5465 5464 5464 5463 5462 5460 5459 5458 5457 5457 5456 5456 5456 5455 5456 5456 5457 5458 5459 5460 5461 5462 5464 5466 5468 5470 5473 5476 5480 5484 5487 5491 5495 5498 5502 5506 5510 5514 5518 5522 5525 5529 5533
5533 5531 5529 5528 5525 5523 5521 5519 5517 5515 5514 5512 5510 5508 5506 5505 5503 5502 5501 5499 5498 5496 5495 5493 5491 5489 5488 5487 5485 5484 5482 5481 5479 5478 5476 5474 5472 5470 5467 5465 5463 5461 5459 5458 5457 5456 5454 5453 5452 5451 5450 5449 5448 5447 5447 5446 5445 5446 5446 5447 5448 5449 5450 5451 5453 5455 5457 5460 5462 5466 5470 5473 5477 5481 5485 5488 5492 5496 5501 5506 5510 5514 5518 5522 5526
5529 5527 5526 5524 5522 5519 5517 5516 5514 5513 5511 5509 5507 5505 5504 5502 5501 5499 5498 5496 5494 5493 5491 5490 5488 5486 5484 5483 5481 5480 5478 5477 5475 5473 5472 5469 5467 5465 5462 5460 5457 5456 5454 5453 5452 5451 5449 5448 5447 5445 5444 5443 5441 5440 5439 5438 5437 5436 5436 5436 5437 5438 5439 5440 5442 5444 5446 5449 5452 5456 5460 5463 5467 5471 5475 5478 5482 5487 5492 5497 5502 5506 5510 5515 5520
5526 5524 5522 5521 5519 5517 5515 5514 5512 5510 5508 5507 5505 5504 5502 5501 5499 5497 5495 5493 5491 5489 5488 5486 5485 5483 5481 5479 5478 5476 5475 5473 5471 5469 5467 5465 5462 5460 5458 5456 5453 5451 5449 5448 5447 5446 5444 5443 5441 5440 5438 5436 5434 5432 5430 5429 5428 5427 5426 5426 5427 5428 5428 5429 5431 5434 5436 5439 5442 5446 5450 5453 5457 5461 5465 5469 5473 5478 5484 5489 5493 5498 5503 5508 5514
5522 5521 5519 5518 5516 5515 5513 5512 5510 5508 5507 5505 5504 5502 5501 5499 5497 5496 5494 5492 5490 5488 5485 5484 5482 5480 5478 5476 5475 5473 5471 5469 5467 5465 5462 5460 5458 5455 5453 5451 5449 5447 5445 5444 5443 5441 5440 5438 5436 5434 5431 5429 5426 5423 5421 5419 5418 5418 5418 5419 5419 5420 5420 5421 5423 5425 5427 5429 5432 5435 5438 5442 5446 5450 5455 5460 5464 5469 5475 5481 5486 5490 5496 5501 5507
5519 5518 5517 5516 5514 5513 5511 5510 5508 5507 5505 5504 5502 5501 5499 5497 5495 5494 5492 5490 5489 5487 5484 5482 5480 5478 5476 5474 5472 5470 5468 5465 5463 5460 5458 5455 5452 5450 5448 5447 5445 5443 5441 5439 5438 5436 5434 5432 5430 5428 5425 5422 5419 5416 5414 5412 5411 5411 5412 5412 5413 5414 5415 5415 5416 5417 5418 5420 5424 5426 5428 5432 5436 5440 5444 5450 5455 5460 5466 5472 5478 5482 5488 5494 5500
5517 5516 5515 5513 5512 5511 5510 5508 5507 5505 5504 5502 5501 5499 5497 5496 5494 5492 5491 5489 5487 5485 5483 5481 5479 5476 5474 5472 5469 5467 5464 5461 5458 5456 5453 5451 5448 5446 5444 5442 5440 5438 5436 5434 5432 5430 5428 5426 5424 5421 5419 5416 5413 5410 5408 5407 5406 5406 5406 5407 5407 5408 5409 5410 5410 5411 5411 5413 5416 5418 5420 5423 5427 5430 5434 5440 5446 5452 5457 5463 5469 5475 5481 5487 5493
5515 5514 5513 5512 5511 5509 5508 5507 5506 5504 5503 5501 5499 5498 5496 5495 5493 5491 5490 5488 5486 5484 5482 5480 5478 5475 5473 5470 5467 5464 5461 5458 5455 5452 5450 5448 5445 5443 5441 5439 5437 5434 5432 5430 5427 5425 5422 5419 5417 5415 5412 5410 5407 5405 5403 5401 5401 5400 5400 5401 5401 5402 5403 5404 5404 5405 5405 5406 5408 5410 5413 5415 5418 5421 5425 5430 5436 5443 5449 5455 5460 5467 5473 5480 5487
5513 5512 5511 5510 5509 5508 5507 5506 5505 5503 5502 5500 5499 5497 5496 5494 5493 5491 5489 5488 5486 5483 5481 5479 5476 5474 5471 5468 5465 5462 5459 5456 5454 5451 5448 5445 5443 5441 5439 5436 5434 5431 5428 5426 5423 5420 5417 5414 5411 5408 5406 5403 5401 5399 5396 5395 5394 5393 5393 5394 5394 5395 5396 5396 5397 5397 5398 5399 5400 5401 5404 5407 5410 5413 5416 5421 5427 5433 5440 5446 5452 5458 5466 5473 5480
5512 5511 5510 5509 5508 5507 5506 5505 5504 5503 5501 5500 5499 5497 5496 5494 5492 5490 5489 5487 5484 5482 5479 5476 5474 5471 5469 5466 5463 5460 5457 5454 5451 5448 5445 5442 5440 5437 5435 5433 5430 5427 5425 5422 5419 5416 5413 5409 5405 5402 5399 5397 5395 5392 5390 5388 5386 5386 5386 5386 5386 5387 5387 5387 5388 5388 5389 5390 5391 5392 5395 5398 5402 5405 5408 5412 5417 5424 5431 5438 5444 5450 5458 5466 5473
5511 5510 5509 5508 5508 5507 5506 5505 5504 5503 5502 5500 5499 5497 5495 5494 5492 5490 5487 5485 5482 5480 5477 5474 5471 5469 5467 5464 5461 5458 5455 5452 5448 5445 5442 5439 5436 5434 5432 5429 5426 5424 5421 5418 5415 5412 5408 5404 5400 5397 5393 5391 5389 5387 5384 5382 5380 5379 5379 5379 5379 5379 5379 5378 5378 5378 5378 5379 5381 5382 5384 5388 5393 5396 5400 5404 5409 5415 5422 5429 5436 5442 5450 5458 5466
5511 5510 5509 5509 5508 5507 5506 5505 5504 5503 5502 5500 5499 5497 5495 5493 5491 5489 5486 5484 5481 5478 5475 5473 5471 5468 5466 5463 5460 5457 5454 5450 5446 5442 5439 5436 5433 5431 5429 5426 5423 5421 5418 5415 5412 5409 5405 5400 5396 5392 5389 5386 5384 5382 5379 5377 5375 5374 5374 5373 5373 5372 5371 5369 5368 5367 5367 5368 5370 5372 5374 5378 5382 5387 5392 5395 5400 5406 5414 5421 5428 5435 5443 5451 5459
5512 5511 5510 5510 5509 5508 5507 5506 5504 5503 5502 5500 5498 5497 5495 5493 5490 5488 5485 5483 5480 5478 5475 5473 5470 5468 5465 5462 5459 5456 5452 5448 5444 5440 5437 5434 5431 5429 5426 5423 5420 5418 5415 5412 5409 5405 5401 5396 5392 5388 5385 5382 5379 5377 5374 5372 5370 5369 5368 5367 5366 5364 5362 5360 5358 5357 5357 5358 5359 5362 5364 5367 5372 5377 5383 5387 5391 5398 5406 5413 5420 5428 5436 5444 5452
5513 5512 5511 5510 5509 5508 5507 5506 5505 5503 5501 5500 5498 5496 5494 5492 5489 5487 5485 5482 5480 5478 5476 5473 5471 5468 5465 5462 5459 5455 5451 5447 5443 5440 5436 5433 5429 5427 5424 5421 5418 5415 5412 5409 5405 5401 5397 5392 5388 5384 5380 5376 5374 5372 5369 5367 5365 5364 5362 5360 5358 5356 5354 5352 5350 5350 5349 5349 5351 5353 5355 5358 5363 5368 5373 5379 5384 5391 5399 5406 5413 5422 5430 5437 5445
5514 5513 5512 5511 5510 5509 5507 5506 5504 5502 5501 5499 5497 5495 5493 5491 5489 5487 5484 5482 5480 5478 5475 5473 5471 5468 5465 5462 5458 5455 5451 5446 5443 5439 5435 5431 5428 5424 5421 5418 5415 5412 5409 5405 5402 5398 5393 5388 5384 5379 5375 5372 5369 5366 5364 5362 5361 5359 5356 5353 5351 5349 5347 5345 5343 5342 5342 5342 5343 5345 5347 5350 5355 5360 5366 5372 5378 5385 5393 5400 5407 5416 5424 5432 5440
5515 5514 5512 5511 5510 5508 5507 5505 5503 5502 5500 5498 5496 5494 5492 5490 5488 5486 5484 5481 5479 5477 5475 5473 5470 5468 5465 5461 5458 5455 5451 5447 5443 5439 5435 5431 5427 5423 5419 5415 5412 5409 5405 5402 5398 5394 5389 5384 5380 5376 5372 5368 5365 5362 5360 5358 5356 5353 5350 5347 5345 5342 5341 5339 5337 5336 5334 5334 5335 5336 5339 5343 5347 5353 5359 5366 5373 5380 5387 5394 5402 5410 5419 5426 5435
5515 5513 5512 5511 5509 5507 5506 5504 5502 5501 5499 5497 5495 5494 5492 5490 5487 5485 5483 5481 5479 5476 5474 5472 5470 5467 5464 5461 5458 5455 5451 5447 5444 5440 5435 5431 5426 5421 5417 5413 5409 5406 5402 5399 5395 5391 5386 5381 5376 5372 5368 5365 5361 5358 5356 5355 5352 5349 5346 5343 5340 5337 5336 5334 5333 5330 5328 5327 5327 5328 5332 5336 5342 5347 5354 5361 5368 5375 5382 5390 5398 5406 5414 5422 5430
5514 5513 5511 5510 5508 5507 5505 5503 5502 5500 5498 5497 5495 5493 5491 5489 5487 5485 5483 5480 5478 5476 5474 5471 5469 5466 5464 5461 5458 5454 5451 5447 5444 5440 5435 5431 5426 5421 5416 5411 5407 5404 5400 5397 5393 5389 5384 5379 5374 5370 5366 5362 5359 5356 5354 5353 5350 5347 5344 5340 5337 5335 5333 5332 5330 5327 5324 5321 5321 5323 5327 5332 5338 5344 5351 5358 5365 5372 5379 5386 5393 5401 5409 5417 5425
5513 5511 5510 5508 5507 5506 5504 5502 5501 5499 5497 5496 5494 5492 5490 5488 5486 5484 5482 5480 5477 5475 5473 5470 5468 5465 5463 5460 5457 5454 5451 5447 5444 5440 5436 5431 5426 5421 5416 5411 5406 5402 5399 5395 5392 5388 5383 5378 5373 5369 5365 5361 5358 5356 5354 5351 5349 5346 5343 5339 5336 5334 5332 5330 5328 5326 5323 5321 5320 5322 5326 5331 5337 5343 5350 5356 5363 5369 5376 5383 5390 5397 5405 5413 5421
5512 5510 5509 5507 5506 5505 5503 5502 5500 5498 5496 5494 5492 5491 5489 5487 5485 5483 5481 5478 5476 5474 5471 5469 5466 5464 5461 5459 5456 5453 5450 5447 5444 5440 5436 5432 5427 5422 5417 5411 5406 5401 5397 5394 5391 5387 5383 5378 5373 5369 5365 5361 5358 5355 5353 5351 5348 5345 5343 5340 5336 5334 5332 5330 5329 5328 5326 5325 5324 5325 5328 5333 5338 5344 5350 5356 5362 5368 5375 5381 5388 5395 5403 5411 5419
5510 5509 5508 5506 5505 5503 5502 5500 5498 5497 5495 5493 5491 5489 5487 5485 5483 5481 5479 5477 5475 5472 5470 5467 5465 5462 5460 5457 5454 5452 5449 5446 5443 5439 5435 5431 5427 5423 5417 5412 5406 5401 5397 5394 5390 5387 5383 5379 5374 5370 5365 5362 5358 5355 5353 5351 5348 5346 5344 5341 5338 5335 5333 5332 5331 5330 5330 5329 5330 5331 5334 5337 5342 5346 5351 5357 5362 5368 5374 5380 5386 5393 5401 5409 5417